Regional Weather Roundup
Issued by NWS

Home | Current Version | Previous Version | Text Only | Print | Product List | Glossary Off
Versions: 1 2 3 4 5 6 7 8 9 10 11 12 13 14 15 16 17 18 19 20 21 22 23 24 25 26 27 28 29 30 31 32 33 34 35 36 37 38 39 40 41 42 43 44 45 46 47 48 49 50

000
ASUS43 KLOT 280612
RWRIL

ILLINOIS REGIONAL WEATHER ROUNDUP
NATIONAL WEATHER SERVICE CHICAGO/ROMEOVILLE IL
1200 AM CST TUE FEB 28 2017

NOTE: "FAIR" INDICATES FEW OR NO CLOUDS BELOW 12,000 FEET WITH NO
SIGNIFICANT WEATHER AND/OR OBSTRUCTIONS TO VISIBILITY.

* THESE STATIONS ARE NOT UNDER NWS QUALITY CONTROL. THEY ALSO MAY NOT
  REPORT WEATHER SUCH AS PRECIPITATION OR FOG.

ILZ001-002-007-009-015-016-024-280700-
NORTHWEST ILLINOIS

CITY           SKY/WX    TMP DP  RH WIND       PRES   REMARKS
MOLINE         MOCLDY    50  41  71 S13G22    29.85F
6HR MIN TEMP:  46; 6HR MAX TEMP:  51; 6HR PCP: TRACE;

STERLING*      CLOUDY    46  42  86 E10       29.90F
$$

ILZ003-004-008-010-011-017-018-280700-
NORTH CENTRAL ILLINOIS

CITY           SKY/WX    TMP DP  RH WIND       PRES   REMARKS
ROCKFORD       LGT RAIN  45  39  79 S10       29.98F
6HR MIN TEMP:  45; 6HR MAX TEMP:  47; 6HR PCP: TRACE;

FREEPORT*      DRIZZLE   41  37  84 SE7       29.95F
ROCHELLE*      CLOUDY    44  41  89 E10       29.94F
DE KALB*       LGT RAIN  44  40  87 SE10      29.97F
PERU*          LGT RAIN  47  41  79 SE20      29.93F
$$

ILZ005-006-012>014-019>023-280700-
NORTHEAST ILLINOIS

CITY           SKY/WX    TMP DP  RH WIND       PRES   REMARKS
CHICAGO-OHARE  CLOUDY    48  40  73 S14       30.00F
6HR MIN TEMP:  43; 6HR MAX TEMP:  49;

CHICAGO-MIDWAY CLOUDY    48  39  71 S12       30.02F
6HR MIN TEMP:  47; 6HR MAX TEMP:  53;

AURORA         LGT RAIN  47  41  80 SE12      29.97F
6HR MIN TEMP:  42; 6HR MAX TEMP:  48; 6HR PCP: TRACE;

LANSING*       CLOUDY    46  42  88 SE12      30.01F
JOLIET*        CLOUDY    48  43  82 SE10      29.99F
WAUKEGAN       CLOUDY    41  36  82 SE6       30.01F
6HR MIN TEMP:  39; 6HR MAX TEMP:  42;

DUPAGE AIRPORT CLOUDY    46  38  73 SE13      29.98F
6HR MIN TEMP:  43; 6HR MAX TEMP:  48;

KANKAKEE*      RAIN      45  41  87 E7        30.02F
WHEELING       CLOUDY    47  39  74 SE10      30.01F
6HR MIN TEMP:  41; 6HR MAX TEMP:  47;

MORRIS*        CLOUDY    48  42  80 SE17      29.96F
ROMEOVILLE*    CLOUDY    46  43  91 S13       30.00F
NORTHERLY ISL    N/A     46  39  76 SE7         N/A
$$

LMZ740>746-280700-
SOUTHERN LAKE MICHIGAN

STATION/POSITION SKY/WX   TEMP    WIND        PRES    VSBY  WAVE
                          AIR SEA DIR/SP/G                  HT/PER
                          (F)     (DEG/KT/KT) (MB)    (MI)  (FT/S)
HARRISON CRIB              45     170/ 21/ 21   N/A
BURNHAM HARBOR             44     110/  5/ 13   N/A
CALUMET HARBOR             47     150/ 11/ 17 1016.2F
BURNS HARBOR               47     170/ 12/ 20 1017.9F
MICHIGAN CITY              45     140/ 11/ 14   N/A
$$

ILZ025>027-034>036-040-047-049-050-058-095>099-280700-
WEST-CENTRAL ILLINOIS

CITY           SKY/WX    TMP DP  RH WIND       PRES   REMARKS
QUINCY         CLOUDY    54  47  77 S10       29.86S
GALESBURG*     CLOUDY    50  43  77 SE7       29.87S
MACOMB*        CLOUDY    52  46  79 SE13      29.89F
JACKSONVILLE*  CLOUDY    54  48  78 S10G16    29.90F
PITTSFIELD*    CLOUDY    56  49  76 S15G22    29.89S
$$

ILZ028>032-037-038-041>044-048-051>054-059>061-280700-
CENTRAL ILLINOIS

CITY           SKY/WX    TMP DP  RH WIND       PRES   REMARKS
PONTIAC        CLOUDY    47  46  98 SE16      29.97F
BLOOMINGTON    LGT RAIN  47  44  90 SE18G26   29.97S
DECATUR        LGT RAIN  49  44  83 SE14      29.96F
PEORIA         MOCLDY    51  46  83 SE15      29.92F
6HR MIN TEMP:  50; 6HR MAX TEMP:  54; 6HR PCP:  0.01;

LACON*         CLOUDY    48  45  88 S15       29.91F
LINCOLN*       RAIN      50  47  91 SE13      29.93F
SPRINGFIELD    CLOUDY    53  46  77 S15       29.92F
6HR MIN TEMP:  53; 6HR MAX TEMP:  58; 6HR PCP: TRACE;

TAYLORVILLE    CLOUDY    52  45  78 S20       29.94F
6HR MIN TEMP:  51; 6HR MAX TEMP:  55;

$$

ILZ033-039-045-046-055>057-062-063-280700-
EAST-CENTRAL ILLINOIS

CITY           SKY/WX    TMP DP  RH WIND       PRES   REMARKS
CHAMPAIGN      MOCLDY    47  42  83 SE18      29.96F
RANTOUL*       CLOUDY    47  45  91 SE15      29.98F
MATTOON        MOCLDY    50  44  80 S14       29.98F
PARIS*         CLOUDY    47  43  84 E8        30.02F
$$

ILZ079-100>102-280700-
SOUTHWEST ILLINOIS

CITY           SKY/WX    TMP DP  RH WIND       PRES   REMARKS
ALTON          CLOUDY    55  49  82 S14       29.95R
BELLEVILLE     CLOUDY    54  54 100 VRB5      29.95F
CAHOKIA*       LGT RAIN  56  50  80 S8G21     29.95F
SPARTA*        CLOUDY    56  48  72 S13G18    29.99F
$$

ILZ064>066-069>071-074>076-080>082-084>086-088>090-092>094-280700-
SOUTH-CENTRAL ILLINOIS

CITY           SKY/WX    TMP DP  RH WIND       PRES   REMARKS
CARBONDALE     LGT RAIN  55  49  80 S12       30.01F
6HR MIN TEMP:  54; 6HR MAX TEMP:  59; 6HR PCP:  0.01;

CAIRO*         CLOUDY    54  49  84 SE8       30.05S
EFFINGHAM*     LGT RAIN  51  47  86 SE12G17   30.01F
MARION         CLOUDY    57  48  72 S16G23    30.02F
MT. VERNON     LGT RAIN  54  47  77 S7        30.01F
CENTRALIA*     CLOUDY    54  49  83 S12       29.98F
SALEM*         CLOUDY    57  46  65 S7G20     30.01S
METROPOLIS*    CLOUDY    54  49  81 CALM      30.07F
$$

ILZ067-068-072-073-078-083-087-091-280700-
SOUTHEAST ILLINOIS

CITY           SKY/WX    TMP DP  RH WIND       PRES   REMARKS
LAWRENCEVILLE  CLOUDY    52  43  71 S17       30.05F
FLORA*         CLOUDY    52  46  80 SE10      30.02F
FAIRFIELD*     MOCLDY    53  45  74 S8        30.04R
HARRISBURG*    CLOUDY    56  47  72 S14G20    30.04F
ROBINSON*      MOCLDY    51  43  76 S12       30.05F
CARMI*         CLOUDY    53  46  76 S15       30.03F
$$

ABBREVIATIONS USED IN REMARKS
   TC - TEMPERATURE IN CELSIUS
  WCI - WIND CHILL INDEX
   HX - HEAT INDEX
  VSB - VISIBILITY
$$





USA.gov is the U.S. government's official web portal to all federal, state and local government web resources and services.